JBU2219 KEWR-TNCA

Flight info

Callsign JBU2219
Flight time 4h 4m
Altitude 36000
Route ELVAE DCT NECCK DCT WHITE Q409 CRPLR DCT ECG/N0450F350 AR8 OXANA/M078F370 L452 LNHOM/N0452F370 L452 CAROX/N0460F360 DCT SEKAR UL450 BEROX BEROX2A
Aircraft A320/M-SDE3FGHIRWY/LB1

Departure

Time 2026-04-23 14:00
Airport Newark Liberty International Airport (KEWR)

Arrival

Time 2026-04-23 18:04
Airport Queen Beatrix International Airport (TNCA)
Time Latitude Longitude Altitude Speed Heading
2026-04-23 13:41 40.68622 -74.18359 21 ft 0 kts 116°
2026-04-23 13:49 40.68625 -74.18370 20 ft 4 kts 115°
2026-04-23 13:49 40.68637 -74.18402 23 ft 4 kts 126°
2026-04-23 13:50 40.68652 -74.18417 23 ft 2 kts 204°
2026-04-23 13:50 40.68654 -74.18416 23 ft 0 kts 206°
2026-04-23 13:53 40.68653 -74.18416 20 ft 0 kts 206°
2026-04-23 13:53 40.68642 -74.18424 21 ft 5 kts 206°
2026-04-23 13:53 40.68602 -74.18449 20 ft 7 kts 206°
2026-04-23 13:53 40.68549 -74.18479 20 ft 9 kts 191°
2026-04-23 13:54 40.68526 -74.18440 20 ft 3 kts 95°
2026-04-23 13:54 40.68513 -74.18399 20 ft 6 kts 113°
2026-04-23 13:54 40.68494 -74.18343 20 ft 8 kts 107°
2026-04-23 13:54 40.68483 -74.18257 19 ft 11 kts 97°
2026-04-23 13:55 40.68473 -74.18149 19 ft 13 kts 96°
2026-04-23 13:55 40.68424 -74.18066 20 ft 13 kts 175°
2026-04-23 13:55 40.68330 -74.18049 19 ft 15 kts 171°
2026-04-23 13:55 40.68225 -74.18010 20 ft 16 kts 156°
2026-04-23 13:56 40.68120 -74.17943 19 ft 14 kts 151°
2026-04-23 13:56 40.68067 -74.17855 19 ft 14 kts 115°
2026-04-23 13:56 40.67991 -74.17816 18 ft 14 kts 210°
2026-04-23 13:56 40.67907 -74.17872 20 ft 14 kts 206°
2026-04-23 13:57 40.67816 -74.17931 20 ft 16 kts 207°
2026-04-23 13:57 40.67707 -74.18000 20 ft 18 kts 206°
2026-04-23 13:57 40.67647 -74.18037 20 ft 9 kts 204°
2026-04-23 13:57 40.67588 -74.18021 19 ft 10 kts 135°
2026-04-23 13:58 40.67569 -74.17936 20 ft 10 kts 62°
2026-04-23 13:58 40.67599 -74.17902 20 ft 0 kts 24°
2026-04-23 13:59 40.67602 -74.17901 20 ft 2 kts 24°
2026-04-23 13:59 40.67761 -74.17805 18 ft 59 kts 25°
2026-04-23 13:59 40.68317 -74.17453 22 ft 115 kts 26°
2026-04-23 13:59 40.69173 -74.16884 42 ft 155 kts 28°
2026-04-23 14:00 40.69798 -74.16472 281 ft 159 kts 27°
2026-04-23 14:00 40.71128 -74.15554 976 ft 164 kts 36°
2026-04-23 14:00 40.72028 -74.14556 1369 ft 180 kts 38°
2026-04-23 14:00 40.72906 -74.13498 1647 ft 200 kts 43°
2026-04-23 14:01 40.73932 -74.12134 1944 ft 221 kts 42°
2026-04-23 14:01 40.75096 -74.10641 2275 ft 245 kts 40°
2026-04-23 14:01 40.76532 -74.09382 2965 ft 251 kts 20°
2026-04-23 14:01 40.78244 -74.08968 3770 ft 251 kts 355°
2026-04-23 14:02 40.79919 -74.09539 4646 ft 250 kts 331°
2026-04-23 14:02 40.81237 -74.11016 5529 ft 251 kts 307°
2026-04-23 14:02 40.81927 -74.13133 6427 ft 256 kts 283°
2026-04-23 14:02 40.81817 -74.15504 7241 ft 267 kts 257°
2026-04-23 14:03 40.80835 -74.17648 8024 ft 284 kts 230°
2026-04-23 14:03 40.79085 -74.18979 8772 ft 302 kts 203°
2026-04-23 14:03 40.77043 -74.19740 9527 ft 307 kts 201°
2026-04-23 14:03 40.74970 -74.20460 10220 ft 312 kts 201°
2026-04-23 14:04 40.72798 -74.21213 10402 ft 335 kts 201°
2026-04-23 14:04 40.70470 -74.22033 10533 ft 357 kts 200°
2026-04-23 14:04 40.68028 -74.22895 10934 ft 367 kts 200°
2026-04-23 14:04 40.65545 -74.23769 11541 ft 371 kts 201°
2026-04-23 14:05 40.63043 -74.24651 12190 ft 374 kts 201°
2026-04-23 14:05 40.60525 -74.25539 12846 ft 376 kts 201°
2026-04-23 14:05 40.57982 -74.26405 13491 ft 381 kts 198°
2026-04-23 14:05 40.55314 -74.26773 14088 ft 392 kts 185°
2026-04-23 14:06 40.52564 -74.26400 14613 ft 403 kts 172°
2026-04-23 14:06 40.49897 -74.25297 15142 ft 412 kts 163°
2026-04-23 14:06 40.47206 -74.23949 15650 ft 415 kts 163°
2026-04-23 14:06 40.44492 -74.22596 16147 ft 419 kts 163°
2026-04-23 14:07 40.41752 -74.21237 16664 ft 423 kts 163°
2026-04-23 14:07 40.36200 -74.18485 17720 ft 430 kts 163°
2026-04-23 14:07 40.33324 -74.17426 18235 ft 430 kts 174°
2026-04-23 14:08 40.30359 -74.17003 18718 ft 428 kts 184°
2026-04-23 14:08 40.27403 -74.17214 19193 ft 424 kts 194°
2026-04-23 14:08 40.24518 -74.17984 19698 ft 424 kts 200°
2026-04-23 14:08 40.21645 -74.18861 20189 ft 427 kts 199°
2026-04-23 14:09 40.18723 -74.19748 20667 ft 431 kts 199°
2026-04-23 14:09 40.15784 -74.20634 21117 ft 435 kts 199°
2026-04-23 14:09 40.12967 -74.21476 21533 ft 439 kts 199°
2026-04-23 14:09 40.09980 -74.22365 21961 ft 442 kts 199°
2026-04-23 14:10 40.06967 -74.23261 22374 ft 446 kts 199°
2026-04-23 14:10 40.03930 -74.24171 22783 ft 448 kts 200°
2026-04-23 14:10 40.00976 -74.25413 23181 ft 444 kts 209°
2026-04-23 14:10 39.98222 -74.27177 23572 ft 440 kts 218°
2026-04-23 14:11 39.95636 -74.29302 23901 ft 441 kts 220°
2026-04-23 14:11 39.93044 -74.31463 24223 ft 444 kts 220°
2026-04-23 14:11 39.90434 -74.33635 24526 ft 447 kts 220°
2026-04-23 14:11 39.87803 -74.35819 24831 ft 450 kts 220°
2026-04-23 14:12 39.85150 -74.38012 25128 ft 453 kts 220°
2026-04-23 14:12 39.82482 -74.40213 25413 ft 456 kts 219°
2026-04-23 14:12 39.79793 -74.42425 25716 ft 459 kts 219°
2026-04-23 14:12 39.77088 -74.44651 26008 ft 461 kts 219°
2026-04-23 14:13 39.74371 -74.46889 26302 ft 464 kts 219°
2026-04-23 14:13 39.71633 -74.49142 26598 ft 467 kts 219°
2026-04-23 14:13 39.68883 -74.51402 26902 ft 469 kts 219°
2026-04-23 14:13 39.66116 -74.53674 27185 ft 472 kts 219°
2026-04-23 14:14 39.63334 -74.55959 27467 ft 475 kts 219°
2026-04-23 14:14 39.60541 -74.58253 27759 ft 477 kts 219°
2026-04-23 14:14 39.57727 -74.60559 28042 ft 480 kts 219°
2026-04-23 14:14 39.54899 -74.62871 28324 ft 482 kts 219°
2026-04-23 14:15 39.52055 -74.65194 28607 ft 484 kts 219°
2026-04-23 14:15 39.49199 -74.67526 28875 ft 487 kts 219°
2026-04-23 14:15 39.46330 -74.69868 29137 ft 489 kts 219°
2026-04-23 14:15 39.43442 -74.72220 29396 ft 491 kts 219°
2026-04-23 14:16 39.40544 -74.74577 29645 ft 493 kts 219°
2026-04-23 14:16 39.37636 -74.76941 29906 ft 495 kts 218°
2026-04-23 14:16 39.34720 -74.79305 30234 ft 495 kts 218°
2026-04-23 14:16 39.31809 -74.81665 30541 ft 494 kts 218°
2026-04-23 14:17 39.28903 -74.84020 30874 ft 492 kts 218°
2026-04-23 14:17 39.26012 -74.86360 31209 ft 491 kts 218°
2026-04-23 14:17 39.23124 -74.88697 31550 ft 489 kts 219°
2026-04-23 14:17 39.20245 -74.91023 31893 ft 487 kts 219°
2026-04-23 14:18 39.17375 -74.93338 32235 ft 486 kts 219°
2026-04-23 14:18 39.14602 -74.95575 32567 ft 485 kts 219°
2026-04-23 14:18 39.11751 -74.97875 32903 ft 483 kts 219°
2026-04-23 14:18 39.08906 -75.00169 33236 ft 482 kts 219°
2026-04-23 14:19 39.06068 -75.02453 33567 ft 481 kts 219°
2026-04-23 14:19 39.03235 -75.04728 33907 ft 480 kts 219°
2026-04-23 14:19 39.00406 -75.06999 34205 ft 479 kts 219°
2026-04-23 14:19 38.97583 -75.09261 34494 ft 478 kts 219°
2026-04-23 14:20 38.94768 -75.11517 34760 ft 477 kts 219°
2026-04-23 14:20 38.91950 -75.13774 35022 ft 477 kts 219°
2026-04-23 14:20 38.89139 -75.16023 35279 ft 476 kts 219°
2026-04-23 14:20 38.86366 -75.18238 35529 ft 475 kts 219°
2026-04-23 14:21 38.83560 -75.20478 35771 ft 475 kts 219°
2026-04-23 14:21 38.80755 -75.22715 35963 ft 475 kts 219°
2026-04-23 14:21 38.75139 -75.27190 36017 ft 476 kts 219°
2026-04-23 14:22 38.69512 -75.31669 36016 ft 476 kts 219°
2026-04-23 14:22 38.63882 -75.36131 36016 ft 476 kts 219°
2026-04-23 14:23 38.58256 -75.40585 36017 ft 476 kts 218°
2026-04-23 14:23 38.52629 -75.45043 36015 ft 476 kts 218°
2026-04-23 14:24 38.46993 -75.49492 36011 ft 476 kts 218°
2026-04-23 14:24 38.41350 -75.53928 36003 ft 477 kts 218°
2026-04-23 14:25 38.35710 -75.58360 36021 ft 476 kts 218°
2026-04-23 14:25 38.30067 -75.62794 36021 ft 476 kts 218°
2026-04-23 14:26 38.24423 -75.67221 36024 ft 476 kts 218°
2026-04-23 14:26 38.19737 -75.70887 36025 ft 476 kts 218°
2026-04-23 14:27 38.14174 -75.75221 36022 ft 476 kts 218°
2026-04-23 14:27 38.08541 -75.79615 36023 ft 475 kts 218°
2026-04-23 14:28 38.02904 -75.84006 36025 ft 475 kts 218°
2026-04-23 14:28 37.97267 -75.88383 36027 ft 475 kts 217°
2026-04-23 14:29 37.91622 -75.92754 36025 ft 475 kts 217°
2026-04-23 14:29 37.85981 -75.97114 36026 ft 475 kts 217°
2026-04-23 14:30 37.80348 -76.01469 36026 ft 475 kts 217°
2026-04-23 14:30 37.74708 -76.05822 36028 ft 475 kts 217°
2026-04-23 14:31 37.69054 -76.10169 36030 ft 475 kts 217°
2026-04-23 14:31 37.63286 -76.14286 36034 ft 481 kts 208°
2026-04-23 14:32 37.56776 -76.16478 36032 ft 491 kts 189°
2026-04-23 14:32 37.49913 -76.16665 36036 ft 494 kts 183°
2026-04-23 14:33 37.43028 -76.16711 36040 ft 494 kts 184°
2026-04-23 14:33 37.36188 -76.16776 36039 ft 494 kts 183°
2026-04-23 14:34 37.29309 -76.16829 36043 ft 494 kts 183°
2026-04-23 14:34 37.22438 -76.16875 36046 ft 494 kts 183°
2026-04-23 14:35 37.15562 -76.16923 36045 ft 494 kts 183°
2026-04-23 14:35 37.08684 -76.16970 36049 ft 494 kts 183°
2026-04-23 14:36 37.01817 -76.17024 36064 ft 493 kts 183°
2026-04-23 14:36 36.95005 -76.17070 36064 ft 493 kts 183°
2026-04-23 14:37 36.88151 -76.17116 36064 ft 492 kts 183°
2026-04-23 14:37 36.81302 -76.17163 36063 ft 491 kts 183°
2026-04-23 14:38 36.74469 -76.17213 36060 ft 491 kts 183°
2026-04-23 14:38 36.67637 -76.17261 36062 ft 491 kts 183°
2026-04-23 14:39 36.60815 -76.17319 36062 ft 490 kts 183°
2026-04-23 14:39 36.53993 -76.17370 36060 ft 490 kts 183°
2026-04-23 14:40 36.47178 -76.17418 36060 ft 490 kts 183°
2026-04-23 14:40 36.40368 -76.17463 36060 ft 489 kts 183°
2026-04-23 14:41 36.33559 -76.17444 36059 ft 490 kts 178°
2026-04-23 14:41 36.26909 -76.15591 36057 ft 493 kts 157°
2026-04-23 14:42 36.21103 -76.11189 36055 ft 491 kts 137°
2026-04-23 14:42 36.16359 -76.05134 36053 ft 489 kts 131°
2026-04-23 14:43 36.12422 -75.99943 36055 ft 490 kts 131°
2026-04-23 14:43 36.07732 -75.93799 36057 ft 490 kts 131°
2026-04-23 14:44 36.03043 -75.87665 36060 ft 491 kts 131°
2026-04-23 14:44 35.98362 -75.81531 36078 ft 491 kts 131°
2026-04-23 14:45 35.93677 -75.75396 36081 ft 491 kts 131°
2026-04-23 14:45 35.88983 -75.69268 36080 ft 491 kts 131°
2026-04-23 14:46 35.84289 -75.63148 36084 ft 491 kts 132°
2026-04-23 14:46 35.79616 -75.57088 36082 ft 491 kts 132°
2026-04-23 14:47 35.74884 -75.50949 36077 ft 491 kts 132°
2026-04-23 14:47 35.70188 -75.44860 36075 ft 490 kts 132°
2026-04-23 14:48 35.65512 -75.38829 36072 ft 490 kts 132°
2026-04-23 14:48 35.60809 -75.32764 36071 ft 490 kts 132°
2026-04-23 14:49 35.56115 -75.26701 36071 ft 490 kts 132°
2026-04-23 14:49 35.51414 -75.20648 36072 ft 489 kts 132°
2026-04-23 14:50 35.46712 -75.14615 36071 ft 489 kts 132°
2026-04-23 14:50 35.42002 -75.08587 36071 ft 489 kts 132°
2026-04-23 14:51 35.37288 -75.02571 36072 ft 489 kts 133°
2026-04-23 14:51 35.32570 -74.96559 36070 ft 489 kts 133°
2026-04-23 14:52 35.27858 -74.90549 36071 ft 489 kts 133°
2026-04-23 14:52 35.23143 -74.84540 36072 ft 489 kts 133°
2026-04-23 14:53 35.18418 -74.78547 36073 ft 490 kts 133°
2026-04-23 14:53 35.13694 -74.72552 36070 ft 489 kts 133°
2026-04-23 14:54 35.08970 -74.66567 36071 ft 489 kts 133°
2026-04-23 14:54 35.04238 -74.60599 36071 ft 489 kts 133°
2026-04-23 14:55 34.99506 -74.54633 36074 ft 489 kts 133°
2026-04-23 14:55 34.94776 -74.48673 36070 ft 489 kts 133°
2026-04-23 14:56 34.90042 -74.42733 36072 ft 489 kts 133°
2026-04-23 14:56 34.85306 -74.36800 36069 ft 488 kts 133°
2026-04-23 14:57 34.80576 -74.30867 36068 ft 488 kts 133°
2026-04-23 14:57 34.75867 -74.25000 36065 ft 488 kts 133°
2026-04-23 14:58 34.71136 -74.19092 36062 ft 488 kts 133°
2026-04-23 14:58 34.66394 -74.13191 36063 ft 488 kts 133°
2026-04-23 14:59 34.61651 -74.07302 36063 ft 488 kts 133°
2026-04-23 14:59 34.56906 -74.01414 36068 ft 488 kts 133°
2026-04-23 15:00 34.52159 -73.95535 36070 ft 488 kts 134°
2026-04-23 15:00 34.47408 -73.89663 36064 ft 488 kts 133°
2026-04-23 15:01 34.42658 -73.83786 36065 ft 488 kts 133°
2026-04-23 15:01 34.37685 -73.78204 36072 ft 488 kts 145°
2026-04-23 15:02 34.31680 -73.74456 36072 ft 486 kts 163°
2026-04-23 15:02 34.25163 -73.72309 36068 ft 486 kts 167°
2026-04-23 15:03 34.18624 -73.70203 36070 ft 486 kts 166°
2026-04-23 15:03 34.12089 -73.68080 36077 ft 487 kts 166°
2026-04-23 15:04 34.05547 -73.65958 36080 ft 487 kts 166°
2026-04-23 15:04 33.99006 -73.63851 36078 ft 487 kts 167°
2026-04-23 15:05 33.92506 -73.61767 36081 ft 486 kts 167°
2026-04-23 15:05 33.85966 -73.59675 36085 ft 486 kts 167°
2026-04-23 15:06 33.79425 -73.57582 36084 ft 486 kts 167°
2026-04-23 15:06 33.72883 -73.55475 36094 ft 487 kts 167°
2026-04-23 15:07 33.66342 -73.53376 36097 ft 487 kts 167°
2026-04-23 15:07 33.59794 -73.51287 36104 ft 486 kts 167°
2026-04-23 15:08 33.53253 -73.49210 36105 ft 486 kts 167°
2026-04-23 15:09 33.43450 -73.46085 36115 ft 486 kts 167°
2026-04-23 15:09 33.36919 -73.44013 36113 ft 485 kts 167°
2026-04-23 15:10 33.31495 -73.42299 36119 ft 485 kts 167°
2026-04-23 15:10 33.23878 -73.39891 36124 ft 484 kts 167°
2026-04-23 15:11 33.17366 -73.37832 36125 ft 484 kts 167°
2026-04-23 15:11 33.10899 -73.35798 36127 ft 484 kts 167°
2026-04-23 15:12 33.04393 -73.33755 36131 ft 483 kts 167°
2026-04-23 15:12 32.97856 -73.31691 36136 ft 483 kts 167°
2026-04-23 15:13 32.91365 -73.29653 36137 ft 482 kts 167°
2026-04-23 15:13 32.84919 -73.27639 36140 ft 482 kts 167°
2026-04-23 15:14 32.78431 -73.25611 36143 ft 482 kts 167°
2026-04-23 15:14 32.71946 -73.23576 36146 ft 482 kts 167°
2026-04-23 15:15 32.66555 -73.21896 36145 ft 482 kts 167°
2026-04-23 15:15 32.60075 -73.19873 36149 ft 482 kts 167°
2026-04-23 15:16 32.53593 -73.17851 36157 ft 482 kts 167°
2026-04-23 15:16 32.47107 -73.15842 36161 ft 482 kts 167°
2026-04-23 15:17 32.40628 -73.13832 36165 ft 481 kts 167°
2026-04-23 15:17 32.34149 -73.11827 36165 ft 481 kts 167°
2026-04-23 15:18 32.27677 -73.09820 36169 ft 481 kts 167°
2026-04-23 15:18 32.21206 -73.07816 36169 ft 480 kts 167°
2026-04-23 15:19 32.14740 -73.05825 36164 ft 480 kts 167°
2026-04-23 15:19 32.08274 -73.03838 36165 ft 480 kts 167°
2026-04-23 15:20 32.01817 -73.01851 36171 ft 479 kts 167°
2026-04-23 15:20 31.95368 -72.99876 36170 ft 479 kts 167°
2026-04-23 15:21 31.88922 -72.97893 36167 ft 478 kts 167°
2026-04-23 15:21 31.82482 -72.95914 36167 ft 478 kts 167°
2026-04-23 15:22 31.76045 -72.93941 36172 ft 478 kts 167°
2026-04-23 15:22 31.69645 -72.91997 36179 ft 478 kts 167°
2026-04-23 15:23 31.63206 -72.90044 36175 ft 478 kts 167°
2026-04-23 15:23 31.56769 -72.88082 36187 ft 478 kts 167°
2026-04-23 15:24 31.50337 -72.86120 36180 ft 477 kts 167°
2026-04-23 15:24 31.43912 -72.84166 36187 ft 477 kts 167°
2026-04-23 15:25 31.37500 -72.82220 36185 ft 476 kts 167°
2026-04-23 15:25 31.31087 -72.80283 36182 ft 476 kts 167°
2026-04-23 15:26 31.24678 -72.78346 36185 ft 476 kts 167°
2026-04-23 15:26 31.18270 -72.76409 36183 ft 476 kts 167°
2026-04-23 15:27 31.11866 -72.74479 36184 ft 475 kts 168°
2026-04-23 15:27 31.05461 -72.72549 36186 ft 475 kts 167°
2026-04-23 15:28 30.99096 -72.70630 36188 ft 475 kts 168°
2026-04-23 15:28 30.92693 -72.68710 36187 ft 475 kts 168°
2026-04-23 15:29 30.86295 -72.66792 36189 ft 475 kts 168°
2026-04-23 15:29 30.79900 -72.64885 36187 ft 474 kts 168°
2026-04-23 15:30 30.73510 -72.62976 36189 ft 474 kts 168°
2026-04-23 15:30 30.67119 -72.61066 36189 ft 474 kts 168°
2026-04-23 15:31 30.60734 -72.59162 36189 ft 474 kts 168°
2026-04-23 15:31 30.54352 -72.57259 36187 ft 474 kts 168°
2026-04-23 15:32 30.47967 -72.55355 36186 ft 473 kts 168°
2026-04-23 15:32 30.41590 -72.53465 36189 ft 473 kts 168°
2026-04-23 15:33 30.35220 -72.51581 36187 ft 473 kts 168°
2026-04-23 15:33 30.28850 -72.49694 36183 ft 472 kts 169°
2026-04-23 15:34 30.22484 -72.47813 36181 ft 472 kts 169°
2026-04-23 15:34 30.16121 -72.45932 36184 ft 472 kts 169°
2026-04-23 15:35 30.09761 -72.44047 36184 ft 472 kts 169°
2026-04-23 15:35 30.03401 -72.42175 36177 ft 471 kts 169°
2026-04-23 15:36 29.97045 -72.40317 36176 ft 471 kts 169°
2026-04-23 15:36 29.90692 -72.38450 36175 ft 471 kts 169°
2026-04-23 15:37 29.84338 -72.36580 36176 ft 471 kts 169°
2026-04-23 15:37 29.77988 -72.34712 36173 ft 471 kts 169°
2026-04-23 15:38 29.71679 -72.32864 36171 ft 471 kts 170°
2026-04-23 15:38 29.65325 -72.31013 36172 ft 471 kts 170°
2026-04-23 15:39 29.58976 -72.29159 36176 ft 471 kts 170°
2026-04-23 15:39 29.52631 -72.27304 36176 ft 470 kts 170°
2026-04-23 15:40 29.46288 -72.25454 36177 ft 470 kts 171°
2026-04-23 15:40 29.39947 -72.23616 36174 ft 470 kts 171°
2026-04-23 15:41 29.33611 -72.21779 36174 ft 470 kts 171°
2026-04-23 15:41 29.27279 -72.19937 36175 ft 469 kts 171°
2026-04-23 15:42 29.20943 -72.18112 36176 ft 469 kts 172°
2026-04-23 15:42 29.14607 -72.16285 36175 ft 469 kts 172°
2026-04-23 15:43 29.08276 -72.14447 36173 ft 470 kts 172°
2026-04-23 15:43 29.01941 -72.12617 36171 ft 470 kts 172°
2026-04-23 15:44 28.95605 -72.10788 36170 ft 470 kts 172°
2026-04-23 15:44 28.89314 -72.08973 36171 ft 469 kts 172°
2026-04-23 15:45 28.82983 -72.07152 36167 ft 469 kts 173°
2026-04-23 15:45 28.76649 -72.05339 36164 ft 469 kts 173°
2026-04-23 15:46 28.70317 -72.03533 36165 ft 469 kts 173°
2026-04-23 15:46 28.63990 -72.01725 36161 ft 469 kts 173°
2026-04-23 15:47 28.57668 -71.99911 36160 ft 469 kts 173°
2026-04-23 15:47 28.51342 -71.98103 36157 ft 468 kts 174°
2026-04-23 15:48 28.45024 -71.96301 36158 ft 468 kts 174°
2026-04-23 15:48 28.38705 -71.94500 36154 ft 468 kts 174°
2026-04-23 15:49 28.32390 -71.92696 36164 ft 468 kts 174°
2026-04-23 15:49 28.26073 -71.90896 36161 ft 468 kts 174°
2026-04-23 15:50 28.19758 -71.89100 36159 ft 468 kts 174°
2026-04-23 15:50 28.13441 -71.87309 36153 ft 468 kts 174°
2026-04-23 15:51 28.07129 -71.85520 36151 ft 468 kts 174°
2026-04-23 15:51 28.00817 -71.83738 36150 ft 467 kts 175°
2026-04-23 15:52 27.94506 -71.81964 36150 ft 467 kts 175°
2026-04-23 15:52 27.88199 -71.80188 36153 ft 467 kts 175°
2026-04-23 15:53 27.81894 -71.78409 36155 ft 467 kts 175°
2026-04-23 15:53 27.75596 -71.76632 36152 ft 467 kts 175°
2026-04-23 15:54 27.69340 -71.74867 36154 ft 466 kts 175°
2026-04-23 15:54 27.63051 -71.73104 36148 ft 466 kts 176°
2026-04-23 15:55 27.56763 -71.71354 36148 ft 465 kts 176°
2026-04-23 15:55 27.50480 -71.69596 36154 ft 465 kts 176°
2026-04-23 15:56 27.44200 -71.67823 36154 ft 465 kts 176°
2026-04-23 15:56 27.37924 -71.66064 36153 ft 465 kts 176°
2026-04-23 15:57 27.31647 -71.64327 36149 ft 464 kts 176°
2026-04-23 15:57 27.25384 -71.62577 36147 ft 464 kts 176°
2026-04-23 15:58 27.19126 -71.60820 36146 ft 463 kts 176°
2026-04-23 15:58 27.12874 -71.59085 36145 ft 463 kts 176°
2026-04-23 15:59 27.06626 -71.57355 36145 ft 462 kts 176°
2026-04-23 15:59 27.00378 -71.55621 36147 ft 462 kts 176°
2026-04-23 16:00 26.94143 -71.53888 36149 ft 462 kts 177°
2026-04-23 16:00 26.87910 -71.52161 36143 ft 461 kts 177°
2026-04-23 16:01 26.81687 -71.50438 36145 ft 460 kts 177°
2026-04-23 16:01 26.75479 -71.48724 36148 ft 459 kts 177°
2026-04-23 16:02 26.69319 -71.47024 36144 ft 459 kts 177°
2026-04-23 16:02 26.63123 -71.45311 36140 ft 459 kts 177°
2026-04-23 16:03 26.56927 -71.43605 36140 ft 458 kts 177°
2026-04-23 16:03 26.50732 -71.41899 36136 ft 458 kts 177°
2026-04-23 16:04 26.44540 -71.40200 36136 ft 458 kts 177°
2026-04-23 16:04 26.38348 -71.38506 36138 ft 458 kts 177°
2026-04-23 16:05 26.33198 -71.37099 36137 ft 458 kts 177°
2026-04-23 16:05 26.26997 -71.35395 36132 ft 459 kts 177°
2026-04-23 16:06 26.20802 -71.33693 36136 ft 459 kts 177°
2026-04-23 16:06 26.14603 -71.32001 36133 ft 459 kts 177°
2026-04-23 16:07 26.08404 -71.30316 36122 ft 459 kts 177°
2026-04-23 16:07 26.02199 -71.28616 36133 ft 459 kts 177°
2026-04-23 16:08 25.95997 -71.26910 36132 ft 459 kts 177°
2026-04-23 16:08 25.89814 -71.25230 36132 ft 459 kts 177°
2026-04-23 16:09 25.83612 -71.23556 36132 ft 459 kts 177°
2026-04-23 16:09 25.77409 -71.21875 36127 ft 459 kts 177°
2026-04-23 16:10 25.71208 -71.20189 36129 ft 459 kts 177°
2026-04-23 16:10 25.65045 -71.18522 36128 ft 459 kts 177°
2026-04-23 16:11 25.58844 -71.16839 36123 ft 459 kts 177°
2026-04-23 16:11 25.52606 -71.15152 36124 ft 459 kts 177°
2026-04-23 16:12 25.46406 -71.13478 36125 ft 458 kts 177°
2026-04-23 16:12 25.40252 -71.11819 36123 ft 458 kts 177°
2026-04-23 16:13 25.34053 -71.10142 36116 ft 458 kts 177°
2026-04-23 16:13 25.24758 -71.07637 36116 ft 458 kts 177°
2026-04-23 16:14 25.18558 -71.05980 36111 ft 459 kts 177°
2026-04-23 16:14 25.12355 -71.04310 36107 ft 459 kts 177°
2026-04-23 16:15 25.06152 -71.02646 36104 ft 459 kts 177°
2026-04-23 16:15 24.99944 -71.01070 36098 ft 453 kts 182°
2026-04-23 16:16 24.93748 -71.00429 36105 ft 446 kts 186°
2026-04-23 16:16 24.87562 -70.99883 36096 ft 447 kts 186°
2026-04-23 16:17 24.81356 -70.99326 36092 ft 448 kts 186°
2026-04-23 16:17 24.75145 -70.98764 36094 ft 448 kts 186°
2026-04-23 16:18 24.68929 -70.98199 36093 ft 448 kts 186°
2026-04-23 16:18 24.62709 -70.97642 36096 ft 448 kts 186°
2026-04-23 16:19 24.56491 -70.97096 36088 ft 448 kts 186°
2026-04-23 16:19 24.50275 -70.96535 36087 ft 448 kts 185°
2026-04-23 16:20 24.44057 -70.95971 36084 ft 448 kts 185°
2026-04-23 16:20 24.37837 -70.95411 36082 ft 449 kts 185°
2026-04-23 16:21 24.31610 -70.94855 36082 ft 449 kts 186°
2026-04-23 16:21 24.25382 -70.94302 36080 ft 449 kts 186°
2026-04-23 16:22 24.19186 -70.93752 36081 ft 450 kts 185°
2026-04-23 16:22 24.12941 -70.93191 36082 ft 450 kts 185°
2026-04-23 16:23 24.06697 -70.92631 36079 ft 450 kts 185°
2026-04-23 16:23 24.00447 -70.92077 36082 ft 451 kts 185°
2026-04-23 16:24 23.94194 -70.91523 36083 ft 451 kts 185°
2026-04-23 16:24 23.87938 -70.90970 36078 ft 451 kts 185°
2026-04-23 16:25 23.81683 -70.90421 36075 ft 451 kts 185°
2026-04-23 16:25 23.75438 -70.89864 36091 ft 449 kts 186°
2026-04-23 16:26 23.69237 -70.89301 36102 ft 446 kts 186°
2026-04-23 16:26 23.63067 -70.88755 36099 ft 444 kts 187°
2026-04-23 16:27 23.56923 -70.88224 36092 ft 443 kts 186°
2026-04-23 16:27 23.50782 -70.87685 36088 ft 442 kts 186°
2026-04-23 16:28 23.44654 -70.87140 36085 ft 442 kts 186°
2026-04-23 16:28 23.38529 -70.86592 36083 ft 442 kts 186°
2026-04-23 16:29 23.32399 -70.86061 36082 ft 442 kts 186°
2026-04-23 16:29 23.26273 -70.85524 36080 ft 442 kts 186°
2026-04-23 16:30 23.20136 -70.84982 36072 ft 442 kts 186°
2026-04-23 16:30 23.14008 -70.84445 36077 ft 442 kts 186°
2026-04-23 16:31 23.07877 -70.83909 36074 ft 442 kts 186°
2026-04-23 16:31 23.01786 -70.83374 36067 ft 442 kts 186°
2026-04-23 16:32 22.95650 -70.82838 36061 ft 442 kts 186°
2026-04-23 16:32 22.89525 -70.82380 36061 ft 439 kts 188°
2026-04-23 16:33 22.83437 -70.82304 36066 ft 436 kts 191°
2026-04-23 16:33 22.77370 -70.82348 36074 ft 436 kts 191°
2026-04-23 16:34 22.71294 -70.82328 36070 ft 437 kts 190°
2026-04-23 16:34 22.65210 -70.82245 36064 ft 437 kts 189°
2026-04-23 16:35 22.59125 -70.82139 36060 ft 437 kts 189°
2026-04-23 16:35 22.53044 -70.82052 36058 ft 437 kts 189°
2026-04-23 16:36 22.46959 -70.81980 36052 ft 437 kts 189°
2026-04-23 16:36 22.40877 -70.81907 36047 ft 437 kts 189°
2026-04-23 16:37 22.34794 -70.81840 36050 ft 437 kts 189°
2026-04-23 16:37 22.28703 -70.81778 36046 ft 438 kts 189°
2026-04-23 16:38 22.22606 -70.81699 36044 ft 438 kts 189°
2026-04-23 16:38 22.16506 -70.81613 36050 ft 439 kts 189°
2026-04-23 16:39 22.10442 -70.81539 36049 ft 439 kts 189°
2026-04-23 16:39 22.04339 -70.81465 36046 ft 439 kts 189°
2026-04-23 16:40 21.98233 -70.81388 36045 ft 439 kts 189°
2026-04-23 16:40 21.92127 -70.81309 36041 ft 439 kts 189°
2026-04-23 16:41 21.86021 -70.81236 36044 ft 439 kts 189°
2026-04-23 16:41 21.81933 -70.81191 36041 ft 439 kts 189°
2026-04-23 16:42 21.73808 -70.81100 36042 ft 439 kts 189°
2026-04-23 16:42 21.67691 -70.81022 36044 ft 439 kts 189°
2026-04-23 16:43 21.61578 -70.80944 36041 ft 439 kts 189°
2026-04-23 16:43 21.55462 -70.80866 36046 ft 440 kts 189°
2026-04-23 16:44 21.49349 -70.80792 36046 ft 439 kts 189°
2026-04-23 16:44 21.43239 -70.80729 36041 ft 439 kts 189°
2026-04-23 16:45 21.37125 -70.80659 36037 ft 439 kts 189°
2026-04-23 16:45 21.31008 -70.80578 36031 ft 439 kts 188°
2026-04-23 16:46 21.24898 -70.80498 36030 ft 439 kts 188°
2026-04-23 16:46 21.18790 -70.80427 36027 ft 439 kts 188°
2026-04-23 16:47 21.12681 -70.80355 36025 ft 439 kts 188°
2026-04-23 16:47 21.06574 -70.80280 36020 ft 439 kts 188°
2026-04-23 16:48 21.00457 -70.80199 36021 ft 440 kts 188°
2026-04-23 16:48 20.94341 -70.80125 36023 ft 440 kts 188°
2026-04-23 16:49 20.88217 -70.80060 36023 ft 440 kts 188°
2026-04-23 16:49 20.82089 -70.79985 36021 ft 440 kts 188°
2026-04-23 16:50 20.75958 -70.79903 36023 ft 441 kts 188°
2026-04-23 16:50 20.69826 -70.79829 36028 ft 441 kts 188°
2026-04-23 16:51 20.63708 -70.79758 35986 ft 444 kts 188°
2026-04-23 16:51 20.57505 -70.79689 35982 ft 447 kts 188°
2026-04-23 16:52 20.51264 -70.79614 35985 ft 449 kts 188°
2026-04-23 16:52 20.44999 -70.79541 35982 ft 451 kts 188°
2026-04-23 16:53 20.39716 -70.79181 35985 ft 462 kts 180°
2026-04-23 16:53 20.33368 -70.78099 35999 ft 462 kts 180°
2026-04-23 16:54 20.27018 -70.77026 35996 ft 463 kts 180°
2026-04-23 16:54 20.20655 -70.75952 35998 ft 463 kts 180°
2026-04-23 16:55 20.14290 -70.74876 35998 ft 463 kts 179°
2026-04-23 16:55 20.07937 -70.73804 35999 ft 463 kts 179°
2026-04-23 16:56 20.01727 -70.72754 36000 ft 463 kts 179°
2026-04-23 16:56 19.95374 -70.71680 35998 ft 462 kts 179°
2026-04-23 16:57 19.89018 -70.70615 35991 ft 462 kts 179°
2026-04-23 16:57 19.82656 -70.69548 35990 ft 463 kts 179°
2026-04-23 16:58 19.76294 -70.68472 35993 ft 463 kts 179°
2026-04-23 16:58 19.69943 -70.67410 35989 ft 462 kts 179°
2026-04-23 16:59 19.63593 -70.66351 35992 ft 462 kts 179°
2026-04-23 16:59 19.57235 -70.65278 36011 ft 462 kts 178°
2026-04-23 17:00 19.50886 -70.64214 36007 ft 462 kts 178°
2026-04-23 17:00 19.44546 -70.63154 36015 ft 461 kts 179°
2026-04-23 17:01 19.38215 -70.62098 36016 ft 460 kts 178°
2026-04-23 17:01 19.31843 -70.61029 36019 ft 460 kts 178°
2026-04-23 17:02 19.25519 -70.59975 36015 ft 460 kts 178°
2026-04-23 17:02 19.19199 -70.58919 36022 ft 460 kts 178°
2026-04-23 17:03 19.12880 -70.57861 36022 ft 460 kts 178°
2026-04-23 17:03 19.06561 -70.56811 36022 ft 460 kts 178°
2026-04-23 17:04 19.00247 -70.55764 36025 ft 459 kts 178°
2026-04-23 17:04 18.93936 -70.54715 36029 ft 459 kts 178°
2026-04-23 17:05 18.87664 -70.53673 36032 ft 459 kts 178°
2026-04-23 17:05 18.81355 -70.52623 36024 ft 458 kts 178°
2026-04-23 17:06 18.75053 -70.51577 36025 ft 458 kts 178°
2026-04-23 17:06 18.68753 -70.50536 36022 ft 458 kts 178°
2026-04-23 17:07 18.62455 -70.49495 36014 ft 458 kts 178°
2026-04-23 17:07 18.56152 -70.48450 36011 ft 459 kts 178°
2026-04-23 17:08 18.49848 -70.47403 36005 ft 459 kts 178°
2026-04-23 17:08 18.43543 -70.46359 35999 ft 458 kts 178°
2026-04-23 17:09 18.37244 -70.45317 36001 ft 458 kts 178°
2026-04-23 17:09 18.30940 -70.44277 35996 ft 458 kts 178°
2026-04-23 17:10 18.24642 -70.43244 35994 ft 458 kts 178°
2026-04-23 17:10 18.18342 -70.42210 35992 ft 458 kts 178°
2026-04-23 17:11 18.12051 -70.41170 35989 ft 458 kts 178°
2026-04-23 17:11 18.05759 -70.40135 35984 ft 457 kts 178°
2026-04-23 17:12 17.99586 -70.39119 35981 ft 457 kts 178°
2026-04-23 17:12 17.93301 -70.38085 35977 ft 457 kts 178°
2026-04-23 17:13 17.87063 -70.37059 35977 ft 457 kts 178°
2026-04-23 17:13 17.80785 -70.36028 35976 ft 456 kts 178°
2026-04-23 17:14 17.74513 -70.35001 35976 ft 456 kts 178°
2026-04-23 17:14 17.68242 -70.33971 35976 ft 456 kts 178°
2026-04-23 17:15 17.61978 -70.32945 35976 ft 456 kts 178°
2026-04-23 17:15 17.55711 -70.31921 35974 ft 456 kts 178°
2026-04-23 17:16 17.49451 -70.30900 35973 ft 455 kts 178°
2026-04-23 17:16 17.43188 -70.29878 35971 ft 455 kts 178°
2026-04-23 17:17 17.36935 -70.28857 35991 ft 454 kts 178°
2026-04-23 17:17 17.30701 -70.27838 35990 ft 453 kts 178°
2026-04-23 17:18 17.21381 -70.26315 35985 ft 452 kts 178°
2026-04-23 17:19 17.15175 -70.25301 35985 ft 451 kts 178°
2026-04-23 17:19 17.08977 -70.24298 35981 ft 450 kts 178°
2026-04-23 17:20 17.02781 -70.23299 35982 ft 450 kts 178°
2026-04-23 17:21 16.90414 -70.21287 35975 ft 449 kts 177°
2026-04-23 17:21 16.81149 -70.19772 35973 ft 449 kts 177°
2026-04-23 17:22 16.71889 -70.18265 35971 ft 449 kts 177°
2026-04-23 17:23 16.62641 -70.16777 35966 ft 448 kts 177°
2026-04-23 17:24 16.53395 -70.15295 35961 ft 448 kts 177°
2026-04-23 17:24 16.44203 -70.13794 35963 ft 448 kts 176°
2026-04-23 17:25 16.34978 -70.12310 35957 ft 447 kts 176°
2026-04-23 17:26 16.22681 -70.10318 35955 ft 447 kts 176°
2026-04-23 17:27 16.13469 -70.08833 35954 ft 447 kts 176°
2026-04-23 17:27 16.07323 -70.07845 35948 ft 447 kts 176°
2026-04-23 17:28 16.01183 -70.06865 35949 ft 445 kts 179°
2026-04-23 17:28 15.95056 -70.06846 35947 ft 439 kts 187°
2026-04-23 17:29 15.88949 -70.07096 35947 ft 439 kts 187°
2026-04-23 17:30 15.80809 -70.07411 35943 ft 440 kts 186°
2026-04-23 17:30 15.70592 -70.07804 35944 ft 440 kts 186°
2026-04-23 17:31 15.64572 -70.08032 35985 ft 424 kts 186°
2026-04-23 17:31 15.61676 -70.08136 35984 ft 410 kts 187°
2026-04-23 17:31 15.58873 -70.08238 35982 ft 396 kts 187°
2026-04-23 17:32 15.56170 -70.08339 35983 ft 382 kts 187°
2026-04-23 17:32 15.53549 -70.08439 35985 ft 373 kts 187°
2026-04-23 17:32 15.48387 -70.08653 35983 ft 370 kts 187°
2026-04-23 17:33 15.43207 -70.08864 35982 ft 379 kts 187°
2026-04-23 17:33 15.37818 -70.09082 35987 ft 396 kts 187°
2026-04-23 17:34 15.32197 -70.09308 35982 ft 412 kts 186°
2026-04-23 17:34 15.26348 -70.09530 35979 ft 429 kts 186°
2026-04-23 17:35 15.23341 -70.09641 35977 ft 437 kts 186°
2026-04-23 17:35 15.14079 -70.09990 35498 ft 445 kts 186°
2026-04-23 17:36 15.10975 -70.10106 35352 ft 446 kts 186°
2026-04-23 17:36 15.07867 -70.10225 34615 ft 448 kts 186°
2026-04-23 17:36 15.04743 -70.10348 33797 ft 451 kts 186°
2026-04-23 17:36 15.01619 -70.10468 33445 ft 449 kts 186°
2026-04-23 17:37 14.98477 -70.10588 33306 ft 454 kts 186°
2026-04-23 17:37 14.95318 -70.10707 32600 ft 455 kts 186°
2026-04-23 17:37 14.88945 -70.10944 31955 ft 462 kts 185°
2026-04-23 17:38 14.85729 -70.11067 31972 ft 464 kts 185°
2026-04-23 17:38 14.82501 -70.11192 31747 ft 465 kts 185°
2026-04-23 17:38 14.79262 -70.11314 31447 ft 466 kts 185°
2026-04-23 17:38 14.77118 -70.11393 31183 ft 467 kts 185°
2026-04-23 17:39 14.73863 -70.11517 30764 ft 468 kts 185°
2026-04-23 17:39 14.70598 -70.11646 30352 ft 471 kts 185°
2026-04-23 17:39 14.67321 -70.11779 29930 ft 473 kts 186°
2026-04-23 17:39 14.64024 -70.11911 29448 ft 475 kts 185°
2026-04-23 17:40 14.60720 -70.12040 28977 ft 476 kts 185°
2026-04-23 17:40 14.57400 -70.12168 28505 ft 478 kts 185°
2026-04-23 17:40 14.54075 -70.12296 28045 ft 479 kts 185°
2026-04-23 17:40 14.50739 -70.12425 27584 ft 480 kts 185°
2026-04-23 17:41 14.47397 -70.12552 27145 ft 481 kts 185°
2026-04-23 17:41 14.40690 -70.12805 26541 ft 483 kts 184°
2026-04-23 17:41 14.37333 -70.12933 26187 ft 481 kts 184°
2026-04-23 17:42 14.30619 -70.13188 25672 ft 486 kts 184°
2026-04-23 17:42 14.27239 -70.13316 25309 ft 487 kts 184°
2026-04-23 17:42 14.23847 -70.13445 24885 ft 488 kts 184°
2026-04-23 17:43 14.20448 -70.13577 24455 ft 489 kts 184°
2026-04-23 17:43 14.17044 -70.13710 24036 ft 490 kts 184°
2026-04-23 17:43 14.13672 -70.13841 23624 ft 478 kts 184°
2026-04-23 17:43 14.10376 -70.13971 23144 ft 472 kts 183°
2026-04-23 17:44 14.07106 -70.14097 22659 ft 470 kts 183°
2026-04-23 17:44 14.03835 -70.14219 22176 ft 471 kts 183°
2026-04-23 17:44 13.97270 -70.14468 21238 ft 473 kts 183°
2026-04-23 17:45 13.93978 -70.14594 20782 ft 474 kts 183°
2026-04-23 17:45 13.87413 -70.14841 19895 ft 474 kts 183°
2026-04-23 17:45 13.84174 -70.14961 19456 ft 458 kts 183°
2026-04-23 17:46 13.78012 -70.15200 18602 ft 431 kts 183°
2026-04-23 17:46 13.75030 -70.15317 18172 ft 428 kts 183°
2026-04-23 17:46 13.72056 -70.15434 17685 ft 428 kts 183°
2026-04-23 17:47 13.69083 -70.15548 17210 ft 428 kts 183°
2026-04-23 17:47 13.66103 -70.15662 16738 ft 429 kts 183°
2026-04-23 17:47 13.60136 -70.15889 15819 ft 430 kts 183°
2026-04-23 17:48 13.57142 -70.16004 15370 ft 430 kts 183°
2026-04-23 17:48 13.54148 -70.16114 14925 ft 431 kts 183°
2026-04-23 17:48 13.51151 -70.16226 14491 ft 432 kts 183°
2026-04-23 17:48 13.48170 -70.16338 14131 ft 422 kts 183°
2026-04-23 17:49 13.45288 -70.16449 13877 ft 407 kts 183°
2026-04-23 17:49 13.42505 -70.16558 13614 ft 392 kts 183°
2026-04-23 17:49 13.39827 -70.16659 13328 ft 378 kts 183°
2026-04-23 17:49 13.37239 -70.16757 13053 ft 366 kts 183°
2026-04-23 17:50 13.34737 -70.16855 12783 ft 355 kts 183°
2026-04-23 17:50 13.29902 -70.17040 12228 ft 344 kts 183°
2026-04-23 17:50 13.27550 -70.17131 11962 ft 342 kts 182°
2026-04-23 17:51 13.25173 -70.17223 11703 ft 341 kts 182°
2026-04-23 17:51 13.22810 -70.17314 11440 ft 339 kts 182°
2026-04-23 17:51 13.18075 -70.17493 10917 ft 337 kts 182°
2026-04-23 17:52 13.15765 -70.17579 10661 ft 336 kts 182°
2026-04-23 17:52 13.11112 -70.17754 10152 ft 333 kts 182°
2026-04-23 17:52 13.08800 -70.17841 9901 ft 332 kts 182°
2026-04-23 17:53 13.04202 -70.18017 9324 ft 329 kts 182°
2026-04-23 17:53 13.01918 -70.18106 9143 ft 328 kts 182°
2026-04-23 17:53 12.99648 -70.18193 8931 ft 326 kts 182°
2026-04-23 17:54 12.97395 -70.18279 8623 ft 320 kts 182°
2026-04-23 17:54 12.95154 -70.18364 8544 ft 324 kts 182°
2026-04-23 17:54 12.90687 -70.18534 8404 ft 311 kts 182°
2026-04-23 17:55 12.86557 -70.18686 8161 ft 290 kts 182°
2026-04-23 17:55 12.84550 -70.18761 7863 ft 287 kts 182°
2026-04-23 17:55 12.82560 -70.18837 7538 ft 285 kts 182°
2026-04-23 17:56 12.80580 -70.18913 7233 ft 284 kts 182°
2026-04-23 17:56 12.76653 -70.19062 6616 ft 281 kts 182°
2026-04-23 17:56 12.74703 -70.19137 6308 ft 280 kts 182°
2026-04-23 17:57 12.72761 -70.19211 5985 ft 278 kts 182°
2026-04-23 17:57 12.70834 -70.19286 5671 ft 277 kts 182°
2026-04-23 17:57 12.67037 -70.19436 5247 ft 266 kts 181°
2026-04-23 17:58 12.65244 -70.19508 5128 ft 257 kts 182°
2026-04-23 17:58 12.63528 -70.19826 5015 ft 248 kts 193°
2026-04-23 17:58 12.61873 -70.20236 4890 ft 239 kts 192°
2026-04-23 17:58 12.60292 -70.20625 4767 ft 229 kts 192°
2026-04-23 17:59 12.58737 -70.20947 4489 ft 225 kts 181°
2026-04-23 17:59 12.57225 -70.20807 4368 ft 214 kts 163°
2026-04-23 17:59 12.55905 -70.20220 4241 ft 202 kts 145°
2026-04-23 17:59 12.54869 -70.19302 4123 ft 193 kts 128°
2026-04-23 18:00 12.54174 -70.18179 3997 ft 182 kts 112°
2026-04-23 18:00 12.53814 -70.16970 3870 ft 174 kts 103°
2026-04-23 18:00 12.53536 -70.15802 3738 ft 164 kts 103°
2026-04-23 18:00 12.53276 -70.14706 3608 ft 156 kts 103°
2026-04-23 18:01 12.53016 -70.13614 3331 ft 158 kts 104°
2026-04-23 18:01 12.52762 -70.12545 3202 ft 152 kts 104°
2026-04-23 18:01 12.52520 -70.11529 3070 ft 142 kts 104°
2026-04-23 18:01 12.52295 -70.10583 2929 ft 133 kts 104°
2026-04-23 18:02 12.52084 -70.09672 2684 ft 133 kts 103°
2026-04-23 18:02 12.51864 -70.08739 2248 ft 139 kts 103°
2026-04-23 18:02 12.51625 -70.07697 1571 ft 157 kts 103°
2026-04-23 18:02 12.51367 -70.06591 994 ft 162 kts 102°
2026-04-23 18:03 12.51123 -70.05497 647 ft 151 kts 104°
2026-04-23 18:03 12.50876 -70.04511 425 ft 135 kts 104°
2026-04-23 18:03 12.50650 -70.03610 238 ft 127 kts 104°
2026-04-23 18:03 12.50441 -70.02744 60 ft 124 kts 104°
2026-04-23 18:04 12.50239 -70.01945 36 ft 104 kts 105°
2026-04-23 18:04 12.50113 -70.01403 49 ft 38 kts 101°
2026-04-23 18:04 12.50063 -70.01177 53 ft 31 kts 104°
2026-04-23 18:04 12.50052 -70.01029 68 ft 17 kts 50°
2026-04-23 18:05 12.50138 -70.01000 54 ft 0 kts 13°
2026-04-23 18:06 12.50178 -70.00989 53 ft 8 kts 17°
2026-04-23 18:06 12.50227 -70.00951 53 ft 10 kts 62°
2026-04-23 18:07 12.50230 -70.00892 58 ft 5 kts 78°
2026-04-23 18:07 12.50254 -70.00883 52 ft 5 kts 18°
2026-04-23 18:07 12.50292 -70.00875 54 ft 2 kts 10°
2026-04-23 18:07 12.50297 -70.00874 58 ft 0 kts 11°